FW1511 Weather Reports


Display with metric or nautical units.
time (UTC)temp
F
wind
direction
speed
MPH
gust
MPH
rain 1hr
in
rain 24hr
in
rain mn
in
humidity
%
barometer
mb
20260507213104 66 125 1.0 6.0 0.00 0.00 0.00 58 1018.2
20260507212636 66 183 2.0 7.0 0.00 0.00 0.00 57 1017.7
20260507211736 67 194 1.0 4.0 0.00 0.00 0.00 56 1017.8
20260507211502 66 215 0.0 4.0 0.00 0.00 0.00 59 1018.4
20260507210836 66 223 1.0 4.0 0.00 0.00 0.00 57 1017.9
20260507210115 65 242 1.0 4.0 0.00 0.00 0.00 57 1018.7
20260507205936 65 322 1.0 4.0 0.00 0.00 0.00 57 1018.0
20260507205036 65 297 2.0 6.0 0.00 0.00 0.00 59 1018.1
20260507204501 64 340 1.0 6.0 0.00 0.00 0.00 59 1018.8
20260507204136 66 175 1.0 5.0 0.00 0.00 0.00 56 1018.2
20260507203236 65 124 1.0 6.0 0.00 0.00 0.00 59 1018.2
20260507203101 65 152 1.0 6.0 0.00 0.00 0.00 58 1018.9
20260507202336 64 103 2.0 5.0 0.00 0.00 0.00 59 1018.4
20260507201505 63 188 1.0 6.0 0.00 0.00 0.00 62 1018.9
20260507201436 63 126 1.0 6.0 0.00 0.00 0.00 62 1018.4
20260507200536 62 318 1.0 6.0 0.00 0.00 0.00 61 1018.3
20260507200106 62 238 1.0 4.0 0.00 0.00 0.00 61 1018.9
20260507195636 62 169 1.0 4.0 0.00 0.00 0.00 62 1018.6
20260507194736 61 170 2.0 3.0 0.00 0.00 0.00 66 1018.5
20260507194502 61 214 0.0 3.0 0.00 0.00 0.00 67 1019.2
20260507193836 60 139 2.0 8.0 0.00 0.00 0.00 64 1018.7
20260507193101 60 155 0.0 8.0 0.00 0.00 0.00 68 1019.2
20260507192036 60 108 1.0 5.0 0.00 0.00 0.00 65 1018.9
20260507191502 59 99 0.0 4.0 0.00 0.00 0.00 69 1019.6
20260507191136 59 80 1.0 4.0 0.00 0.00 0.00 66 1019.0
20260507190236 58 142 1.0 6.0 0.00 0.00 0.00 68 1019.1
20260507190115 58 239 0.0 6.0 0.00 0.00 0.00 69 1019.5
20260507184501 58 237 0.0 5.0 0.00 0.00 0.00 69 1019.7
20260507184436 58 155 1.0 5.0 0.00 0.00 0.00 69 1019.2
20260507183536 58 139 2.0 5.0 0.00 0.00 0.00 70 1019.2
20260507183117 57 163 2.0 5.0 0.00 0.00 0.00 72 1019.8
20260507182636 57 147 1.0 5.0 0.00 0.00 0.00 69 1019.3
20260507181736 57 220 1.0 3.0 0.00 0.00 0.00 69 1019.3
20260507181502 57 243 0.0 3.0 0.00 0.00 0.00 70 1019.9
20260507180836 57 142 1.0 4.0 0.00 0.00 0.00 69 1019.3
20260507180106 57 198 0.0 5.0 0.00 0.00 0.00 70 1019.9
20260507175936 57 142 1.0 5.0 0.00 0.00 0.00 71 1019.4
20260507175037 57 66 1.0 3.0 0.00 0.00 0.00 73 1019.4
20260507174503 56 109 0.0 4.0 0.00 0.00 0.00 71 1020.0
20260507173236 56 168 1.0 4.0 0.00 0.00 0.00 72 1019.5
20260507173120 56 145 1.0 4.0 0.00 0.00 0.00 72 1020.1
20260507172336 56 165 1.0 3.0 0.00 0.00 0.00 73 1019.6
20260507171603 55 114 0.0 5.0 0.00 0.00 0.00 74 1020.1
20260507171436 55 142 2.0 5.0 0.00 0.00 0.00 74 1019.6
20260507170536 55 138 0.0 5.0 0.00 0.00 0.00 72 1019.7
20260507170001 55 265 0.0 2.0 0.00 0.00 0.00 74 1020.3
20260507165636 54 150 1.0 2.0 0.00 0.00 0.00 74 1019.8
20260507164736 54 158 1.0 3.0 0.00 0.00 0.00 74 1019.8
20260507164638 54 165 1.0 3.0 0.00 0.00 0.00 73 1020.4
20260507163836 54 137 2.0 5.0 0.00 0.00 0.00 75 1019.7
20260507163002 53 119 3.0 7.0 0.00 0.00 0.00 73 1020.3
20260507162936 54 144 1.0 7.0 0.00 0.00 0.00 74 1019.7
20260507162036 53 182 1.0 5.0 0.00 0.00 0.00 74 1019.7
20260507161605 53 236 1.0 5.0 0.00 0.00 0.00 77 1020.4
20260507161136 53 154 1.0 4.0 0.00 0.00 0.00 76 1019.8
20260507160236 52 279 1.0 4.0 0.00 0.00 0.00 76 1020.0
20260507160002 52 250 1.0 5.0 0.00 0.00 0.00 76 1020.5
20260507155336 52 190 1.0 4.0 0.00 0.00 0.00 76 1019.9
20260507154604 51 165 1.0 4.0 0.00 0.00 0.00 78 1020.5
20260507154436 52 188 0.0 4.0 0.00 0.00 0.00 77 1020.0
20260507153536 52 200 0.0 3.0 0.00 0.00 0.00 77 1019.9
20260507153002 51 170 1.0 3.0 0.00 0.00 0.00 77 1020.5
20260507152636 52 167 1.0 3.0 0.00 0.00 0.00 78 1019.9
20260507151736 51 0 0.0 2.0 0.00 0.00 0.00 79 1020.0
20260507151604 51 229 0.0 2.0 0.00 0.00 0.00 78 1020.6
20260507150836 51 153 0.0 4.0 0.00 0.00 0.00 79 1020.0
20260507150002 50 117 0.0 4.0 0.00 0.00 0.00 79 1020.6
20260507145937 51 231 1.0 4.0 0.00 0.00 0.00 80 1020.0
20260507144603 50 231 1.0 4.0 0.00 0.00 0.00 79 1020.5
20260507143236 50 211 1.0 5.0 0.00 0.00 0.00 80 1019.9
20260507143001 50 243 0.0 5.0 0.00 0.00 0.00 80 1020.4
20260507142336 50 197 0.0 4.0 0.00 0.00 0.00 80 1019.8
20260507141609 50 186 0.0 3.0 0.00 0.00 0.00 82 1020.5
20260507141436 50 0 0.0 1.0 0.00 0.00 0.00 82 1019.9
20260507140536 50 0 0.0 1.0 0.00 0.00 0.00 82 1019.8
20260507140001 49 143 0.0 0.0 0.00 0.00 0.00 83 1020.2
20260507135636 50 0 0.0 0.0 0.00 0.00 0.00 83 1019.8
20260507134602 49 126 0.0 0.0 0.00 0.00 0.00 82 1020.2
20260507133002 49 121 0.0 0.0 0.00 0.00 0.00 82 1020.2
20260507132937 49 0 0.0 0.0 0.00 0.00 0.00 82 1019.6
20260507132036 49 0 0.0 0.0 0.00 0.00 0.00 82 1019.6
20260507131607 49 201 0.0 0.0 0.00 0.00 0.00 82 1020.3
20260507131136 49 0 0.0 0.0 0.00 0.00 0.00 83 1019.7
20260507130237 49 0 0.0 0.0 0.00 0.00 0.00 82 1019.7
20260507125336 49 0 0.0 0.0 0.00 0.00 0.00 82 1019.7
20260507124606 49 117 0.0 0.0 0.00 0.00 0.00 82 1020.0
20260507123536 49 0 0.0 3.0 0.00 0.00 0.00 83 1019.7
20260507123002 49 169 1.0 3.0 0.00 0.00 0.00 82 1020.2
20260507122636 50 0 0.0 1.0 0.00 0.00 0.00 82 1019.6
20260507121736 50 0 0.0 4.0 0.00 0.00 0.00 82 1019.6
20260507121603 49 159 0.0 4.0 0.00 0.00 0.00 82 1020.2
20260507120837 50 159 1.0 2.0 0.00 0.00 0.00 83 1019.6
20260507120006 49 183 0.0 3.0 0.00 0.00 0.00 83 1020.4
20260507115938 50 127 1.0 3.0 0.00 0.00 0.00 83 1019.9
20260507115036 50 0 0.0 2.0 0.00 0.00 0.00 84 1019.9
20260507113007 50 166 0.0 3.0 0.00 0.00 0.00 82 1020.4
20260507112336 50 0 0.0 3.0 0.00 0.00 0.00 82 1019.9
20260507111603 50 200 0.0 2.0 0.00 0.00 0.00 81 1020.7
20260507111436 50 151 1.0 2.0 0.00 0.00 0.00 81 1020.0
20260507110536 50 175 1.0 6.0 0.00 0.00 0.00 81 1020.0
20260507110009 50 167 1.0 6.0 0.00 0.00 0.00 81 1020.6
20260507104736 50 0 0.0 3.0 0.00 0.00 0.00 82 1020.1
20260507104603 50 115 1.0 3.0 0.00 0.00 0.00 82 1020.8
20260507103837 50 0 0.0 2.0 0.00 0.00 0.00 82 1020.2
20260507103001 50 203 0.0 3.0 0.00 0.00 0.00 82 1020.8
20260507102936 51 0 0.0 3.0 0.00 0.00 0.00 82 1020.2
20260507101603 50 167 0.0 3.0 0.00 0.00 0.00 83 1020.7
20260507101137 51 157 1.0 3.0 0.00 0.00 0.00 82 1020.2
20260507100236 51 152 1.0 4.0 0.00 0.00 0.00 81 1020.1
20260507100004 50 186 2.0 4.0 0.00 0.00 0.00 81 1020.7
20260507095336 51 145 0.0 4.0 0.00 0.00 0.00 81 1020.2
20260507094612 50 166 0.0 3.0 0.00 0.00 0.00 81 1020.8
20260507094436 51 156 0.0 3.0 0.00 0.00 0.00 80 1020.2
20260507093537 51 174 1.0 4.0 0.00 0.00 0.00 80 1020.2
20260507091737 51 149 0.0 5.0 0.00 0.00 0.00 83 1020.3
20260507091636 51 153 1.0 5.0 0.00 0.00 0.00 83 1020.9
20260507090837 51 177 1.0 2.0 0.00 0.00 0.00 83 1020.4
20260507090002 51 181 0.0 3.0 0.00 0.00 0.00 83 1021.0
20260507085936 51 151 1.0 3.0 0.00 0.00 0.00 83 1020.5
20260507084611 51 158 0.0 0.0 0.00 0.00 0.00 82 1021.2
20260507083236 52 0 0.0 0.0 0.00 0.00 0.00 82 1020.7
20260507083004 51 148 0.0 1.0 0.00 0.00 0.00 82 1021.2
20260507082337 52 0 0.0 3.0 0.00 0.00 0.00 82 1020.6
20260507081436 52 0 0.0 1.0 0.00 0.00 0.00 81 1020.6
20260507080537 52 0 0.0 1.0 0.00 0.00 0.00 81 1020.6
20260507080004 51 157 0.0 1.0 0.00 0.00 0.00 81 1021.1
20260507075637 52 0 0.0 1.0 0.00 0.00 0.00 81 1020.5
20260507074737 52 0 0.0 3.0 0.00 0.00 0.00 81 1020.5
20260507074604 51 184 0.0 3.0 0.00 0.00 0.00 81 1021.1
20260507073837 52 0 0.0 1.0 0.00 0.00 0.00 81 1020.5
20260507073004 51 165 0.0 3.0 0.00 0.00 0.00 81 1021.0
20260507072938 52 165 0.0 3.0 0.00 0.00 0.00 81 1020.5
20260507072037 52 126 1.0 2.0 0.00 0.00 0.00 80 1020.4
20260507071602 52 117 0.0 2.0 0.00 0.00 0.00 81 1021.1
20260507071136 52 0 0.0 2.0 0.00 0.00 0.00 80 1020.4
20260507070236 52 137 1.0 2.0 0.00 0.00 0.00 80 1020.4
20260507070011 52 134 0.0 2.0 0.00 0.00 0.00 80 1020.9
20260507065337 52 124 1.0 6.0 0.00 0.00 0.00 79 1020.4
20260507064606 52 112 1.0 3.0 0.00 0.00 0.00 79 1021.1
20260507064436 52 135 1.0 5.0 0.00 0.00 0.00 80 1020.5
20260507063537 52 142 1.0 3.0 0.00 0.00 0.00 80 1020.5
20260507063003 52 120 1.0 3.0 0.00 0.00 0.00 79 1021.0
20260507062637 52 130 1.0 3.0 0.00 0.00 0.00 79 1020.4
20260507061737 52 137 1.0 4.0 0.00 0.00 0.00 80 1020.4
20260507061601 52 176 0.0 5.0 0.00 0.00 0.00 80 1021.1
20260507060837 52 138 1.0 5.0 0.00 0.00 0.00 80 1020.4
20260507055937 52 139 1.0 4.0 0.00 0.00 0.00 80 1020.4
20260507055037 52 121 1.0 4.0 0.00 0.00 0.00 83 1020.6
20260507054602 52 131 0.0 5.0 0.00 0.00 0.00 83 1021.1
20260507054137 53 126 0.0 5.0 0.00 0.00 0.00 83 1020.4
20260507053237 53 0 0.0 1.0 0.00 0.00 0.00 83 1020.4
20260507053002 52 124 0.0 1.0 0.00 0.00 0.00 83 1021.1
20260507052337 53 0 0.0 2.0 0.00 0.00 0.00 83 1020.5
20260507051602 52 162 0.0 3.0 0.00 0.00 0.00 82 1021.0
20260507051437 53 0 0.0 3.0 0.00 0.00 0.00 82 1020.5
20260507050537 53 154 1.0 6.0 0.00 0.00 0.00 82 1020.4
20260507050002 53 175 1.0 6.0 0.00 0.00 0.00 83 1021.1
20260507045637 53 176 1.0 8.0 0.00 0.00 0.00 83 1020.7
20260507044618 53 202 0.0 3.0 0.00 0.00 0.00 83 1021.1
20260507043837 54 161 1.0 4.0 0.00 0.00 0.00 83 1020.4
20260507042937 54 0 0.0 3.0 0.00 0.00 0.00 83 1020.4
20260507042037 54 0 0.0 4.0 0.00 0.00 0.00 83 1020.3
20260507041609 54 160 0.0 4.0 0.00 0.00 0.00 83 1020.8
20260507041137 54 0 0.0 0.0 0.00 0.00 0.00 83 1020.3
20260507040237 54 0 0.0 0.0 0.00 0.00 0.00 82 1020.2
20260507040200 54 181 0.0 0.0 0.00 0.00 0.00 82 1020.7
20260507035338 54 120 0.0 1.0 0.00 0.00 0.00 82 1020.1
20260507034601 54 208 0.0 4.0 0.00 0.00 0.00 82 1020.6
20260507034437 54 162 1.0 4.0 0.00 0.00 0.00 82 1019.9
20260507033537 55 218 1.0 6.0 0.00 0.00 0.00 82 1020.1
20260507033201 54 234 0.0 4.0 0.00 0.00 0.00 81 1020.5
20260507032637 55 164 2.0 5.0 0.00 0.00 0.00 81 1020.0
20260507031737 55 157 1.0 5.0 0.00 0.00 0.00 81 1020.0
20260507031601 54 191 0.0 5.0 0.00 0.00 0.00 81 1020.5
20260507030837 55 160 1.0 4.0 0.00 0.00 0.00 81 1020.0
20260507025937 55 161 0.0 5.0 0.00 0.00 0.00 81 1019.9
20260507025037 56 165 0.0 4.0 0.00 0.00 0.00 81 1019.8
20260507024501 55 175 0.0 3.0 0.00 0.00 0.00 80 1020.3
20260507023237 56 186 1.0 5.0 0.00 0.00 0.00 81 1019.9
20260507023110 55 133 0.0 5.0 0.00 0.00 0.00 81 1020.3
20260507022337 56 186 1.0 5.0 0.00 0.00 0.00 80 1019.7
20260507021700 56 320 0.0 6.0 0.00 0.00 0.00 80 1020.3
20260507021437 56 187 2.0 6.0 0.00 0.00 0.00 80 1019.9
20260507020537 56 154 2.0 6.0 0.00 0.00 0.00 79 1019.9
20260507020104 56 113 2.0 5.0 0.00 0.00 0.00 79 1020.3
20260507015637 57 193 1.0 6.0 0.00 0.00 0.00 79 1019.8
20260507014737 57 244 1.0 5.0 0.00 0.00 0.00 79 1019.8
20260507014700 56 225 1.0 5.0 0.00 0.00 0.00 80 1020.4
20260507013837 57 215 2.0 6.0 0.00 0.00 0.00 80 1019.9
20260507013100 57 254 1.0 6.0 0.00 0.00 0.00 79 1020.5
20260507012937 57 201 2.0 6.0 0.00 0.00 0.00 79 1019.9
20260507012037 58 212 1.0 7.0 0.00 0.00 0.00 78 1019.9
20260507011501 57 173 0.0 5.0 0.00 0.00 0.00 78 1020.4
20260507010237 58 248 2.0 6.0 0.00 0.00 0.00 77 1019.9
20260507010100 58 169 1.0 6.0 0.00 0.00 0.00 77 1020.5
20260507005337 58 226 2.0 5.0 0.00 0.00 0.00 76 1019.9
20260507004500 58 323 1.0 6.0 0.00 0.00 0.00 76 1020.2
20260507004437 58 224 1.0 6.0 0.00 0.00 0.00 76 1019.7
20260507003537 58 231 1.0 5.0 0.00 0.00 0.00 76 1019.9
20260507003116 58 234 0.0 5.0 0.00 0.00 0.00 77 1020.4
20260507002637 58 217 2.0 7.0 0.00 0.00 0.00 77 1019.9
20260507001503 58 249 1.0 6.0 0.00 0.00 0.00 75 1020.3
20260507000837 58 188 2.0 5.0 0.00 0.00 0.00 77 1019.9
20260506235937 58 167 3.0 7.0 0.00 0.00 0.00 76 1019.9
20260506235037 58 184 2.0 9.0 0.00 0.00 0.00 76 1020.1
20260506234700 58 203 2.0 6.0 0.00 0.00 0.00 77 1020.7
20260506234137 58 217 2.0 7.0 0.00 0.00 0.00 78 1020.2
20260506233237 59 225 2.0 7.0 0.00 0.00 0.00 77 1019.9
20260506233102 58 214 1.0 5.0 0.00 0.00 0.00 77 1020.5
20260506232337 59 223 2.0 5.0 0.00 0.00 0.00 78 1020.1
20260506231502 58 242 1.0 6.0 0.00 0.00 0.00 77 1020.5
20260506231437 59 187 2.0 6.0 0.00 0.00 0.00 77 1020.0
20260506230537 59 201 2.0 6.0 0.00 0.00 0.00 77 1020.1
20260506230115 59 235 2.0 6.0 0.00 0.00 0.00 76 1020.5
20260506225637 59 182 3.0 8.0 0.00 0.00 0.00 77 1019.9
20260506224737 59 212 2.0 5.0 0.00 0.00 0.00 76 1020.0
20260506224700 59 193 2.0 6.0 0.00 0.00 0.00 76 1020.6
20260506223837 60 181 2.0 8.0 0.00 0.00 0.00 75 1020.1
20260506223105 59 188 2.0 10.0 0.00 0.00 0.00 75 1020.7
20260506222037 61 205 3.0 8.0 0.00 0.00 0.00 73 1020.3
20260506221501 62 231 2.0 9.0 0.00 0.00 0.00 71 1020.9
20260506221137 62 197 4.0 10.0 0.00 0.00 0.00 74 1020.2
20260506215337 62 210 2.0 6.0 0.00 0.00 0.00 73 1020.1
20260506214437 60 248 3.0 8.0 0.00 0.00 0.00 74 1020.0
20260506213537 61 289 2.0 6.0 0.00 0.00 0.00 74 1020.2